Location: Montichiari
(45.4167°N, 10.3833°E)
Time: 19:55:16
(UTC+00:00)

Daily predictions for brighter satellites

Satellite Brightness Start Highest point End
(mag) Time Altitude Azimuth Time Altitude Azimuth Time Altitude Azimuth
Cosmos 1844 Rocket 3.0 19:18:33 10° S 19:23:55 47° ESE 19:29:18 10° NE
Meteor 1-10 Rocket 4.3 19:18:28 10° N 19:24:21 78° ENE 19:30:05 10° SSE
Cosmos 407 Rocket 3.7 19:19:11 10° NNW 19:24:26 64° ENE 19:29:41 10° SSE
H-2A R/B 4.1 19:23:16 10° E 19:25:56 14° ENE 19:28:34 10° NNE
COSMOS 2487 4.0 19:24:16 10° N 19:27:18 24° ENE 19:30:18 10° ESE
ERS-1 Rocket 3.1 19:25:19 10° SSE 19:30:21 89° WSW 19:35:26 10° NNW
Cosmos 1140 Rocket 4.5 19:29:09 10° N 19:33:46 32° ENE 19:38:21 10° ESE
Cosmos 2082 Rocket 3.8 19:29:54 10° N 19:34:22 23° NE 19:38:47 10° E
Cosmos 1452 Rocket 4.1 19:30:16 10° SSE 19:35:03 37° ESE 19:39:52 10° NE
Cosmos 1190 Rocket 4.1 19:32:37 10° NNW 19:37:50 82° WSW 19:43:01 10° SSE
ERBS 4.1 19:34:55 10° WNW 19:37:53 26° SW 19:40:48 10° S
CENTAUR R/B 3.9 19:32:21 10° NW 19:39:51 50° WSW 19:47:45 10° S
Okean 2 Rocket 4.3 19:36:43 10° SE 19:40:12 23° E 19:43:41 10° NE
Cosmos 2263 Rocket 4.2 19:35:05 10° WSW 19:40:13 35° NW 19:45:22 10° NNE
SPOT 1/Viking Rocket 4.4 19:36:04 10° SE 19:40:43 34° ENE 19:45:24 10° N
Meteor 2-10 Rocket 4.4 19:35:23 10° NNW 19:41:07 59° W 19:46:41 10° S
Cosmos 1674 Rocket 3.7 19:36:40 10° N 19:41:10 86° W 19:45:36 10° S
SL-08 ROCKET BODY 4.5 19:35:46 10° S 19:41:49 89° W 19:47:47 10° N
USA 186 4.4 19:41:39 10° SW 19:44:01 20° W 19:46:30 10° NW
Sich 1 Rocket 3.6 19:43:25 10° S 19:47:59 71° E 19:52:33 10° NNE
BREEZE-M TANK 4.3 19:23:30 10° WSW 19:47:59 86° S 19:52:37 10° E
CZ-4B R/B 4.4 19:44:08 10° NE 19:48:18 26° E 19:52:21 10° SSE
Cosmos 1825 2.8 19:45:54 10° SSE 19:49:26 38° E 19:53:01 10° NNE
YAOGAN 6 3.1 19:48:47 12° SE 19:51:50 41° ENE 19:55:10 10° N
Cosmos 1408 3.1 19:49:35 10° SSE 19:53:02 40° E 19:56:30 10° NNE
Meteor 1-27 Rocket 3.7 19:47:41 10° N 19:53:19 80° E 19:58:49 10° SSE
Okean 3 3.8 19:49:23 10° N 19:53:34 49° ENE 19:57:22 12° SSE
Cosmos 1782 Rocket 4.1 19:53:14 10° SSE 19:57:26 41° E 20:01:39 10° NNE
Cosmos 1242 Rocket 3.5 19:54:32 10° N 19:57:52 32° ENE 20:00:20 15° SE
NOSS 2-2 (D) 4.1 19:54:57 10° SW 19:59:06 65° NW 20:04:07 10° NE
Intercosmos 25 4.2 19:58:57 14° SE 20:01:11 25° E 20:03:53 10° NE
Cosmos 1862 3.3 19:58:00 10° S 20:02:02 65° E 20:06:06 10° NNE
Cosmos 2154 Rocket 4.0 19:56:37 10° S 20:02:48 77° E 20:09:01 10° N
Cosmos 676 Rocket 4.2 20:02:59 10° NNW 20:08:11 74° WSW 20:13:10 11° SSE
Cosmos 1975 Rocket 3.1 20:06:23 10° N 20:10:42 63° E 20:14:08 16° SSE
Cosmos 1174 3.8 20:09:28 10° NW 20:12:41 48° WSW 20:14:44 17° S
Nimbus 7 Rocket 4.5 20:07:20 10° NNE 20:13:18 88° WNW 20:19:17 10° SSW
Cosmos 1954 Rocket 4.0 20:08:38 10° NNW 20:13:51 84° WSW 20:18:21 14° SSE
UNK 4.5 20:10:51 10° NNE 20:17:05 65° ESE 20:23:02 10° S
Cosmos 489 Rocket 4.5 20:14:38 10° NNW 20:20:53 84° ENE 20:25:50 17° SSE
deb Chang Zheng 4 4.4 20:17:14 10° N 20:21:32 54° WNW 20:25:52 10° SSW
Cosmos 1908 Rocket 4.0 20:18:03 10° SSW 20:22:24 64° W 20:26:51 10° N
Cosmos 1378 Rocket 4.0 20:20:06 10° NNW 20:24:21 59° W 20:28:29 11° S
CZ-4C R/B 4.2 20:23:16 21° ESE 20:25:16 35° ENE 20:29:01 10° N
Cosmos 1741 Rocket 4.2 20:20:06 10° NNW 20:25:19 62° ENE 20:28:46 21° SE
Cosmos 1606 3.9 20:22:14 10° NNW 20:25:58 41° W 20:29:40 10° SSW
MetOp-B 4.4 20:21:46 11° S 20:26:52 70° WSW 20:32:15 10° NNW
Cosmos 1184 Rocket 2.8 20:25:33 12° S 20:28:35 87° W 20:31:58 10° N
Cosmos 1238 Rocket 3.0 20:25:55 10° NNW 20:29:01 52° W 20:31:57 14° S
Cosmos 2366 rocket 4.4 20:28:18 18° SSE 20:32:41 45° E 20:38:40 10° NNE
Cosmos 2084 3.0 20:29:18 10° SW 20:33:08 80° SE 20:37:00 10° NE
CZ-4 SHROUD 4.2 20:31:02 16° SSW 20:33:15 42° W 20:36:14 10° NNW
USA 245 3.1 20:31:22 23° S 20:33:17 78° WSW 20:37:20 10° NNW
SPOT 5 3.9 20:29:38 10° S 20:34:44 50° W 20:39:57 10° NNW
Terra 2.6 20:33:29 22° ESE 20:35:59 39° ENE 20:40:24 10° N
ARGOS 3.2 20:37:51 19° SSE 20:41:49 84° WSW 20:47:13 10° NNW
ATLAS 5 CENTAUR R/B 4.4 20:37:48 10° WNW 20:41:59 19° WSW 20:46:20 10° SSW
SL-8 R/B 4.0 20:37:17 10° W 20:42:06 70° NNW 20:46:55 10° ENE
APEX 3.6 20:42:56 20° S 20:45:34 58° ESE 20:50:35 10° NNE
Cosmos 2151 Rocket 3.9 20:43:34 27° SSE 20:45:44 50° E 20:50:08 10° NNE
H-2A R/B 4.3 20:48:41 10° SW 20:51:51 20° W 20:54:59 10° NW
ASTEX 1 4.4 20:48:12 10° NNE 20:52:32 29° E 20:53:53 26° ESE
SL-08 RB Rocket 3.8 20:50:42 24° S 20:53:28 74° WSW 20:58:07 10° NNW
Meteor 1-18 Rocket 4.4 20:49:44 10° N 20:55:37 66° ENE 20:58:49 28° SSE
Cosmos 2218 Rocket 4.0 20:53:16 17° S 20:58:24 80° E 21:04:49 10° N
BREEZE-M DEB (TANK) 3.5 20:48:02 10° WNW 20:58:38 49° SW 21:00:22 30° SSE
ISS -3.5 20:55:32 10° SW 20:58:46 73° SSE 21:02:02 10° ENE
USA 234 3.5 20:53:24 10° ENE 20:59:37 44° SE 21:05:46 10° SSW
Cosmos 1420 Rocket 4.1 20:54:31 10° SSW 20:59:47 79° WNW 21:05:02 10° NNE
Cosmos 1833 Rocket 2.8 20:54:48 10° NNW 21:00:26 69° ENE 21:03:12 30° SE
Meteor 1-14 Rocket 4.2 20:56:00 17° S 21:00:33 87° E 21:06:10 10° NNE
Cosmos 2278 Rocket 2.7 20:55:43 10° SW 21:01:20 63° WNW 21:07:00 10° NNE
Okean 1 4.0 20:58:56 10° N 21:02:46 39° ENE 21:03:40 34° ESE
COSMOS 2487 4.4 20:59:53 10° NW 21:02:51 24° W 21:04:47 16° SW
H-2A R/B 2.1 21:01:42 29° SSE 21:04:33 83° ENE 21:09:54 10° NNW
Cosmos 614 Rocket 4.2 21:03:30 10° NNW 21:08:33 63° WSW 21:11:02 29° S
Cosmos 1300 Rocket 4.1 21:11:12 36° ESE 21:11:55 39° E 21:16:05 10° NNE
Cosmos 1727 Rocket 3.9 21:05:53 10° N 21:12:05 87° E 21:15:27 29° S
Okean 1 Rocket 3.8 21:11:46 33° ESE 21:12:22 35° E 21:16:26 10° NNE
Okean 1-7 Rocket 4.3 21:10:19 10° N 21:14:36 40° ENE 21:15:37 35° ESE
IGS 5A 3.4 21:13:56 45° SSE 21:15:10 83° ENE 21:19:22 10° NNW
Spot 2 4.5 21:11:53 10° NNE 21:16:03 41° E 21:16:28 40° ESE
Cosmos 2082 Rocket 2.3 21:13:21 10° NNW 21:19:02 71° WSW 21:21:34 34° S
Meteor 1-11 Rocket 4.4 21:27:31 33° ESE 21:28:56 38° E 21:34:14 10° NNE
Meteor 2-19 Rocket 4.4 21:31:25 28° S 21:34:51 86° W 21:41:01 10° N
Cosmos 2297 4.0 21:29:17 10° SW 21:34:57 66° WNW 21:40:41 10° NNE
Gbstr 26 Del rocket 3.3 21:30:23 10° WNW 21:35:21 64° NNE 21:36:53 37° E
Timation 1 Rocket 4.3 21:32:42 33° S 21:35:26 66° ESE 21:41:24 10° NNE
Cosmos 1302 Rocket 4.5 21:40:16 39° ESE 21:40:42 40° ESE 21:45:38 10° NE
Cosmos 1812 3.0 21:38:29 10° NNW 21:42:19 59° W 21:42:50 53° SW
USA 229 DEB 4.0 21:40:43 10° NW 21:47:41 59° WSW 21:50:31 36° S
USA 229 4.0 21:40:49 10° NW 21:47:47 60° WSW 21:50:38 36° S
Cosmos 1821 Rocket 4.2 21:48:05 41° SE 21:49:56 54° E 21:55:59 10° NNE
Meteor 1-19 Rocket 4.3 21:55:48 10° N 22:01:42 76° E 22:03:15 50° SSE
Cosmos 2123 Rocket 4.2 21:58:00 10° N 22:04:11 57° ENE 22:05:59 42° SE
Cosmos 1934 Rocket 4.0 22:03:44 46° SE 22:05:12 59° E 22:11:08 10° NNE
NOSS 3-1 (A) 4.2 21:58:42 10° NW 22:06:09 70° NE 22:10:18 32° SE
Meteor 2-21 Rocket 4.4 22:08:41 49° SSE 22:10:21 70° E 22:16:32 10° NNE
Cosmos 2369 Rocket 2.8 22:10:29 37° ESE 22:10:29 37° ESE 22:15:35 10° NE
H-2A R/B 4.0 22:08:37 10° NE 22:12:00 27° E 22:12:00 27° E
CZ-4C R/B 4.1 22:13:41 40° NE 22:13:41 40° NE 22:16:53 10° N
Terra 3.4 22:12:22 22° WSW 22:13:50 25° W 22:17:48 10° NW
Cosmos 1503 Rocket 4.1 22:09:26 10° NNW 22:14:40 67° ENE 22:15:38 55° ESE
Cosmos 1892 Rocket 3.8 22:10:37 10° N 22:14:55 56° ENE 22:14:57 56° E
Cosmos 1536 3.0 22:17:02 62° NE 22:17:02 62° NE 22:20:33 10° NNE
Cosmos 1400 Rocket 2.9 22:18:08 76° NE 22:18:08 76° NE 22:22:02 10° NNE
Iridium 4 Rocket 3.8 22:14:09 10° N 22:20:02 84° W 22:21:33 52° S
Cosmos 1331 Rocket 4.5 22:19:41 33° SW 22:21:48 55° WNW 22:26:54 10° NNE
Meteor 2-21 4.4 22:19:47 45° SSW 22:21:49 82° W 22:28:04 10° N
CZ-2C R/B 4.2 22:20:43 10° NE 22:24:34 21° E 22:24:34 21° E
Cosmos 1809 Rocket 4.5 22:22:49 44° SSW 22:24:53 77° W 22:31:07 10° N
SL-8 R/B 4.1 22:20:13 10° WNW 22:25:00 63° N 22:27:31 27° E
BREEZE-M DEB (TANK) 3.1 22:24:04 10° WNW 22:26:48 58° NNE 22:34:28 10° E
ATLAS 2AS CENTAUR R/B 3.9 22:19:29 10° NNW 22:27:18 46° NE 22:33:21 16° ESE
Lacrosse 5 2.1 22:33:15 54° E 22:33:15 54° E 22:37:35 10° NE
ISS -1.5 22:32:27 10° WNW 22:35:26 31° NNW 22:38:24 10° NE
Meteor 1-5 Rocket 4.2 22:35:34 55° ESE 22:36:01 57° E 22:41:14 10° NNE
NOSS 3-1 (C) 4.0 22:29:35 10° NW 22:37:05 73° WSW 22:39:50 45° SSE
Cosmos 2084 Rocket 3.9 22:33:47 10° NNW 22:37:28 50° NE 22:37:28 50° NE
ALOS 2 2.5 22:40:44 80° NE 22:40:44 80° NE 22:45:03 10° N
Cosmos 1626 Rocket 4.4 22:36:39 10° N 22:40:52 39° ENE 22:40:53 39° ENE
USA 234 3.6 22:36:20 10° NE 22:42:48 66° NNW 22:49:15 10° WSW
Cosmos 1833 Rocket 4.4 22:39:57 10° WNW 22:43:45 19° W 22:44:54 18° WSW
H-2A R/B 4.4 22:42:21 11° WSW 22:44:35 14° W 22:47:22 10° WNW
Cosmos 1025 Rocket 3.7 22:40:24 10° NNW 22:44:36 45° W 22:44:36 45° W
Cosmos 1455 Rocket 3.2 22:45:50 62° ENE 22:45:50 62° ENE 22:49:46 10° NNE
Cosmos 1354 Rocket 4.0 22:41:45 10° NNW 22:46:58 64° WSW 22:47:24 62° SW
CZ-4B R/B 3.0 22:49:49 32° N 22:49:49 32° N 22:51:40 10° N
Cosmos 1943 Rocket 3.1 22:51:31 33° E 22:51:31 33° E 22:56:12 10° NE
Cosmos 1818 4.4 22:55:42 37° E 22:55:42 37° E 23:00:06 10° NE
Cosmos 1447 Rocket 4.4 22:53:30 10° N 22:59:42 85° E 23:00:57 60° SSE
Meteor 2-4 Rocket 4.2 22:57:47 10° NNW 23:02:58 46° W 23:03:42 44° WSW
Cosmos 1633 4.2 23:06:31 30° WNW 23:06:31 30° WNW 23:09:28 10° NNW
Okean 2 4.4 23:09:03 10° NNW 23:12:28 39° WNW 23:12:28 39° WNW
Cosmos 2100 Rocket 4.2 23:12:18 52° SE 23:13:34 63° E 23:19:51 10° NNE
Cosmos 2263 4.0 23:13:46 71° S 23:14:24 84° ESE 23:20:05 10° NNE
Cosmos 1544 Rocket 4.3 23:15:01 43° WNW 23:15:01 43° WNW 23:19:09 10° N
Cosmos 1992 Rocket 3.8 23:16:10 80° S 23:16:26 86° ESE 23:21:41 10° NNE
Cosmos 1315 Rocket 4.1 23:19:51 32° WNW 23:19:51 32° WNW 23:23:10 10° N
Cosmos 1500 4.5 23:23:15 35° NE 23:23:15 35° NE 23:25:56 10° NNE
Cosmos 2061 Rocket 4.1 23:23:55 55° SSE 23:25:15 70° E 23:31:39 10° NNE
Lacrosse 5 rocket 2.2 23:26:00 42° NNW 23:26:00 42° NNW 23:29:16 10° NE
GP-B 3.1 23:21:30 10° N 23:25:40 76° NNE 23:25:40 76° NNE
BREEZE-M DEB (TANK) 3.9 23:13:51 10° W 23:26:56 64° N 23:30:40 10° E
MOS 1-B Rocket 4.1 23:26:59 55° SSW 23:28:07 66° W 23:34:54 10° NNW
UNK 4.2 23:12:42 10° SW 23:28:40 76° SSE 23:32:47 10° ENE
Cosmos 1515 4.4 23:26:13 10° N 23:29:15 53° N 23:29:15 53° N
Helios 1A Rocket 3.2 23:29:13 10° NNE 23:32:54 67° N 23:32:54 67° N
Cosmos 1459 Rocket 3.8 23:32:23 61° S 23:33:31 82° E 23:39:37 10° N
Cosmos 2016 Rocket 4.1 23:32:49 51° SE 23:33:58 59° E 23:39:58 10° NNE
Cosmos 1833 4.0 23:28:30 10° NNW 23:34:09 83° WSW 23:34:46 71° S
Gblst 52 Del rocket 4.5 23:32:26 31° WSW 23:36:06 89° NNW 23:42:23 10° ENE
Cosmos 1802 Rocket 3.9 23:37:14 59° SSE 23:38:27 76° E 23:44:44 10° N
Cosmos 1346 Rocket 4.2 23:41:06 10° NNW 23:43:42 31° WNW 23:43:42 31° WNW
Cosmos 1953 Rocket 4.2 23:42:13 10° N 23:46:24 46° ENE 23:46:26 46° ENE
H-2A R/B 3.8 23:44:02 10° N 23:48:06 33° WNW 23:48:38 32° W
Cosmos 2173 Rocket 4.0 23:51:29 56° SSW 23:52:53 76° W 23:59:16 10° N
Cosmos 2369 Rocket 3.3 23:52:14 27° W 23:54:28 38° NW 23:59:42 10° NNE
